FW7297 Weather Reports


time (UTC)temp
F
wind
direction
speed
knots
gust
knots
rain 1hr
in
rain 24hr
in
rain mn
in
humidity
%
barometer
mb
20260906120204 70 29 0.0 0.9 0.00 0.31 0.00 97 1012.9
20260906115704 70 348 0.0 0.9 0.00 0.31 0.00 97 1012.8
20260906115204 70 149 0.0 0.9 0.00 0.31 0.00 97 1012.8
20260906114704 69 266 0.0 0.9 0.00 0.31 0.00 97 1012.3
20260906114204 70 86 0.0 0.9 0.00 0.31 0.00 97 1012.3
20260906113704 70 72 0.0 1.7 0.00 0.31 0.00 97 1012.4
20260906112704 70 223 0.0 0.9 0.00 0.31 0.00 97 1012.2
20260906112204 70 12 0.0 0.9 0.00 0.31 0.00 97 1012.2
20260906111704 70 310 0.0 0.9 0.00 0.31 0.00 97 1012.1
20260906111204 70 10 0.0 0.9 0.00 0.31 0.00 97 1012.1
20260906110704 70 311 0.0 0.9 0.00 0.31 0.00 97 1012.1
20260906110204 70 358 0.0 0.9 0.00 0.31 0.00 97 1012.1
20260906105704 70 184 0.0 0.9 0.00 0.31 0.00 97 1011.9
20260906105204 70 50 0.0 0.9 0.00 0.31 0.00 97 1012.0
20260906104704 70 332 0.0 1.7 0.00 0.31 0.00 97 1011.7
20260906104204 70 8 0.0 1.7 0.00 0.31 0.00 97 1011.7
20260906103704 70 188 0.0 1.7 0.00 0.31 0.00 97 1011.9
20260906103204 70 348 0.0 1.7 0.00 0.31 0.00 97 1011.8
20260906102204 70 158 0.0 0.9 0.00 0.31 0.00 97 1011.7
20260906101704 70 283 0.0 0.9 0.00 0.31 0.00 97 1011.9
20260906101204 70 66 0.0 1.7 0.00 0.31 0.00 97 1011.7
20260906100703 70 53 0.0 1.7 0.00 0.31 0.00 97 1011.7
20260906100204 70 24 0.0 0.9 0.00 0.31 0.00 97 1011.8
20260906095704 70 54 0.0 0.9 0.00 0.31 0.00 97 1011.6
20260906095204 71 90 0.0 1.7 0.00 0.31 0.00 96 1011.8
20260906094704 70 135 0.0 1.7 0.00 0.31 0.00 97 1011.9
20260906094204 71 303 0.0 1.7 0.00 0.31 0.00 96 1012.1
20260906093704 71 24 0.0 1.7 0.00 0.31 0.00 96 1011.8
20260906093204 71 77 0.0 1.7 0.00 0.31 0.00 96 1012.1
20260906092704 71 306 0.9 1.7 0.00 0.31 0.00 96 1011.8
20260906092204 71 298 0.0 1.7 0.00 0.31 0.00 96 1011.8
20260906091704 71 132 0.9 1.7 0.00 0.31 0.00 96 1011.7
20260906091204 71 72 0.9 1.7 0.00 0.31 0.00 96 1011.6
20260906090704 71 21 0.9 1.7 0.00 0.31 0.00 96 1011.6
20260906090204 71 333 0.9 1.7 0.00 0.31 0.00 96 1011.4
20260906085204 71 338 0.0 1.7 0.00 0.31 0.00 95 1011.4
20260906084706 72 245 0.0 1.7 0.00 0.31 0.00 95 1011.3
20260906084204 72 109 0.9 1.7 0.00 0.31 0.00 95 1011.3
20260906083704 72 305 0.9 1.7 0.00 0.31 0.00 95 1011.2
20260906083204 72 314 0.0 0.9 0.00 0.31 0.00 95 1011.2
20260906082704 72 94 0.0 1.7 0.00 0.31 0.00 95 1011.4
20260906082204 72 49 0.0 1.7 0.00 0.31 0.00 95 1011.5
20260906081704 72 226 0.9 1.7 0.00 0.31 0.00 95 1011.5
20260906081204 72 137 0.0 1.7 0.00 0.31 0.00 95 1011.6
20260906080704 73 36 0.0 1.7 0.00 0.31 0.00 94 1011.4
20260906080205 73 177 0.0 2.6 0.00 0.31 0.00 94 1011.5
20260906075704 73 132 0.9 2.6 0.00 0.31 0.00 94 1011.4
20260906075204 73 88 1.7 2.6 0.00 0.31 0.00 94 1011.3
20260906074204 73 317 0.9 4.3 0.00 0.31 0.00 93 1011.3
20260906073204 74 280 1.7 4.3 0.00 0.31 0.00 91 1011.5
20260906072703 74 215 1.7 5.2 0.00 0.31 0.00 92 1011.3
20260906072204 73 223 2.6 5.2 0.00 0.31 0.00 94 1011.5
20260906071704 73 269 0.9 2.6 0.00 0.31 0.00 95 1011.5
20260906070704 73 269 0.9 2.6 0.00 0.31 0.00 95 1011.6
20260906070204 73 181 0.9 2.6 0.00 0.31 0.00 94 1011.6
20260906065703 73 199 1.7 2.6 0.00 0.31 0.00 94 1011.6
20260906065204 73 240 0.9 2.6 0.00 0.31 0.00 94 1011.3
20260906064704 73 224 1.7 4.3 0.00 0.31 0.00 94 1011.3
20260906064203 73 259 1.7 5.2 0.00 0.31 0.00 94 1011.5
20260906063704 73 253 1.7 5.2 0.00 0.31 0.00 94 1011.4
20260906063204 73 219 2.6 5.2 0.00 0.31 0.00 94 1011.3
20260906062703 73 229 1.7 4.3 0.00 0.31 0.00 94 1011.8
20260906062203 73 262 2.6 5.2 0.00 0.31 0.00 94 1012.0
20260906060704 73 242 2.6 4.3 0.00 0.31 0.00 95 1012.0
20260906060204 73 302 0.9 2.6 0.00 0.31 0.00 95 1011.7
20260906055704 73 244 0.9 2.6 0.00 0.31 0.15 95 1011.9
20260906055204 73 240 1.7 2.6 0.00 0.31 0.15 95 1012.0
20260906054204 73 279 0.9 2.6 0.00 0.31 0.15 95 1012.4
20260906053704 73 47 0.9 2.6 0.00 0.31 0.15 94 1012.3
20260906053204 73 267 0.9 2.6 0.00 0.31 0.15 94 1012.4
20260906052703 73 239 0.9 4.3 0.01 0.31 0.15 94 1012.4
20260906051703 73 216 2.6 6.1 0.13 0.31 0.15 95 1013.1
20260906051204 73 222 3.5 6.1 0.14 0.31 0.15 95 1013.1
20260906050703 73 227 3.5 5.2 0.15 0.31 0.15 95 1013.2
20260906050204 73 226 0.9 4.3 0.15 0.31 0.15 95 1013.3
20260906045704 73 222 0.9 4.3 0.15 0.15 0.15 94 1013.3
20260906045204 73 235 2.6 4.3 0.15 0.15 0.15 94 1013.0
20260906044704 73 225 0.9 2.6 0.15 0.15 0.15 94 1012.8
20260906044204 74 84 1.7 2.6 0.15 0.15 0.15 94 1012.9
20260906043704 74 248 1.7 2.6 0.15 0.15 0.15 93 1012.7
20260906043203 74 350 1.7 2.6 0.15 0.15 0.15 91 1012.9
20260906042703 75 188 1.7 2.6 0.14 0.15 0.15 90 1013.1
20260906041704 77 283 0.9 4.3 0.02 0.03 0.03 84 1013.0
20260906041204 77 66 0.9 4.3 0.01 0.02 0.02 80 1012.9
20260906040704 77 279 1.7 4.3 0.00 0.00 0.00 79 1013.0
20260906040204 77 226 0.9 4.3 0.00 0.00 0.00 80 1012.9
20260906035704 77 249 0.0 4.3 0.00 0.00 0.00 81 1012.7
20260906035204 76 260 1.7 4.3 0.00 0.00 0.00 82 1012.7
20260906033704 75 42 0.0 1.7 0.00 0.00 0.00 86 1012.1
20260906033204 75 121 0.0 1.7 0.00 0.00 0.00 86 1012.3
20260906032705 75 108 0.0 1.7 0.00 0.00 0.00 87 1012.5
20260906032206 75 97 0.9 1.7 0.00 0.00 0.00 86 1012.1
20260906031704 75 91 0.9 0.9 0.00 0.00 0.00 86 1011.9
20260906031205 75 210 0.0 0.9 0.00 0.00 0.00 86 1011.7
20260906030205 75 157 0.0 1.7 0.00 0.00 0.00 85 1012.0
20260906025705 75 111 0.9 1.7 0.00 0.00 0.00 85 1012.0
20260906025205 75 338 0.0 1.7 0.00 0.00 0.00 85 1012.0
20260906024705 75 135 0.0 1.7 0.00 0.00 0.00 85 1012.0
20260906023705 75 44 0.0 1.7 0.00 0.00 0.00 85 1011.6
20260906023205 75 263 0.9 1.7 0.00 0.00 0.00 86 1011.7
20260906022705 75 167 0.9 1.7 0.00 0.00 0.00 85 1011.5
20260906022205 75 215 1.7 1.7 0.00 0.00 0.00 85 1011.6
20260906021705 75 196 0.9 1.7 0.00 0.00 0.00 84 1011.4
20260906020204 75 245 1.7 2.6 0.00 0.00 0.00 84 1011.3
20260906015704 75 215 0.9 1.7 0.00 0.00 0.00 83 1011.0
20260906015204 76 214 1.7 1.7 0.00 0.00 0.00 81 1011.0
20260906014705 76 132 0.0 1.7 0.00 0.00 0.00 79 1011.0
20260906014206 76 128 0.0 1.7 0.00 0.00 0.00 78 1011.0
20260906013705 76 329 0.0 0.0 0.00 0.00 0.00 78 1010.8
20260906013205 77 309 0.0 0.0 0.00 0.00 0.00 77 1010.8
20260906012704 77 44 0.0 1.7 0.00 0.00 0.00 76 1011.0
20260906012205 77 44 0.0 1.7 0.00 0.00 0.00 76 1010.9
20260906011707 77 308 0.9 1.7 0.00 0.00 0.00 75 1011.1
20260906011205 77 98 0.9 1.7 0.00 0.00 0.00 75 1011.0
20260906010705 77 284 0.0 0.9 0.00 0.00 0.00 74 1011.0
20260906010205 78 276 0.0 1.7 0.00 0.00 0.00 74 1011.1
20260906005205 78 168 0.9 1.7 0.00 0.00 0.00 73 1011.1
20260906004705 78 98 0.9 2.6 0.00 0.00 0.00 73 1011.1
20260906004205 78 204 1.7 2.6 0.00 0.00 0.00 72 1011.2
20260906003705 78 236 0.9 4.3 0.00 0.00 0.00 73 1011.2
20260906002705 81 224 2.6 4.3 0.00 0.00 0.00 69 1011.6
20260906002205 82 201 1.7 4.3 0.00 0.00 0.00 65 1012.0
20260906001705 84 250 2.6 4.3 0.00 0.00 0.00 63 1011.9
20260906001205 86 305 2.6 4.3 0.00 0.00 0.00 63 1011.6
20260906000705 87 269 0.9 1.7 0.00 0.00 0.00 62 1011.6
20260905235204 88 74 0.9 1.7 0.00 0.00 0.00 57 1010.8
20260905234705 89 174 0.9 1.7 0.00 0.00 0.00 56 1010.7
20260905234205 89 177 0.9 1.7 0.00 0.00 0.00 55 1010.6
20260905233704 89 143 0.9 4.3 0.00 0.00 0.00 55 1010.7
20260905233206 90 88 0.9 4.3 0.00 0.00 0.00 54 1010.5
20260905232706 90 112 1.7 4.3 0.00 0.00 0.00 53 1010.5
20260905232205 91 122 0.9 4.3 0.00 0.00 0.00 52 1010.4
20260905231705 91 197 0.9 4.3 0.00 0.00 0.00 52 1010.2
20260905231204 91 152 0.9 4.3 0.00 0.00 0.00 52 1010.1
20260905230704 92 112 1.7 4.3 0.00 0.00 0.00 51 1010.2
20260905230205 92 100 0.9 2.6 0.00 0.00 0.00 50 1010.2
20260905225704 92 129 0.9 2.6 0.00 0.00 0.00 49 1010.3
20260905225205 93 135 1.7 4.3 0.00 0.00 0.00 48 1010.2
20260905224706 93 139 1.7 4.3 0.00 0.00 0.00 47 1010.3
20260905224205 93 142 1.7 4.3 0.00 0.00 0.00 47 1010.5
20260905223705 94 155 2.6 4.3 0.00 0.00 0.00 45 1010.5
20260905223204 94 139 0.9 1.7 0.00 0.00 0.00 46 1010.3
20260905222705 94 112 0.9 2.6 0.00 0.00 0.00 45 1010.5
20260905222204 94 83 0.9 2.6 0.00 0.00 0.00 45 1010.5
20260905221704 94 99 0.9 5.2 0.00 0.00 0.00 46 1010.4
20260905221205 93 141 0.9 5.2 0.00 0.00 0.00 46 1010.5
20260905220205 93 190 0.9 5.2 0.00 0.00 0.00 48 1010.5
20260905215706 94 121 2.6 5.2 0.00 0.00 0.00 48 1010.5
20260905212704 94 82 1.7 4.3 0.00 0.00 0.00 47 1010.7
20260905212205 96 345 1.7 4.3 0.00 0.00 0.00 45 1010.8
20260905211704 94 225 0.0 4.3 0.00 0.00 0.00 43 1010.9
20260905211204 94 62 2.6 4.3 0.00 0.00 0.00 45 1010.8
20260905210705 93 127 0.9 7.0 0.00 0.00 0.00 46 1010.8
20260905210205 94 109 2.6 7.0 0.00 0.00 0.00 45 1011.0
20260905205704 95 92 3.5 6.1 0.00 0.00 0.00 43 1010.6
20260905205205 93 116 3.5 6.1 0.00 0.00 0.00 47 1010.8
20260905204704 91 121 2.6 5.2 0.00 0.00 0.00 47 1010.6
20260905204204 90 142 0.0 5.2 0.00 0.00 0.00 51 1011.1
20260905203705 91 64 1.7 5.2 0.00 0.00 0.00 51 1011.2
20260905203205 92 113 1.7 5.2 0.00 0.00 0.00 51 1011.0
20260905202705 92 119 1.7 5.2 0.00 0.00 0.00 50 1011.0
20260905201705 92 90 2.6 7.8 0.00 0.00 0.00 53 1011.3
20260905201204 94 86 4.3 7.8 0.00 0.00 0.00 51 1011.4
20260905200704 94 111 2.6 7.8 0.00 0.00 0.00 52 1011.2
20260905200205 94 77 3.5 7.0 0.00 0.00 0.00 52 1011.2
20260905195705 94 87 2.6 8.7 0.00 0.00 0.00 50 1011.4
20260905195204 96 108 4.3 8.7 0.00 0.00 0.00 48 1011.2
20260905194705 96 113 1.7 7.0 0.00 0.00 0.00 45 1011.4
20260905194204 100 175 1.7 7.0 0.00 0.00 0.00 41 1011.3
20260905193705 100 104 2.6 7.0 0.00 0.00 0.00 41 1011.3
20260905193205 99 185 2.6 4.3 0.00 0.00 0.00 39 1011.3
20260905192704 99 223 1.7 5.2 0.00 0.00 0.00 40 1011.2
20260905192205 99 202 1.7 5.2 0.00 0.00 0.00 40 1011.3
20260905191704 100 170 2.6 6.1 0.00 0.00 0.00 38 1011.3
20260905191204 101 232 2.6 6.1 0.00 0.00 0.00 38 1011.9
20260905190704 100 131 2.6 5.2 0.00 0.00 0.00 40 1011.8
20260905190204 100 221 2.6 5.2 0.00 0.00 0.00 41 1011.8
20260905185704 98 85 1.7 5.2 0.00 0.00 0.00 42 1011.7
20260905185205 96 161 1.7 5.2 0.00 0.00 0.00 42 1011.6
20260905184704 98 199 4.3 5.2 0.00 0.00 0.00 42 1011.8
20260905184204 98 188 1.7 4.3 0.00 0.00 0.00 42 1011.9
20260905183704 97 264 1.7 6.1 0.00 0.00 0.00 43 1011.9
20260905183204 96 99 0.9 7.8 0.00 0.00 0.00 44 1012.1
20260905182705 96 332 1.7 7.8 0.00 0.00 0.00 45 1012.1
20260905182204 95 134 0.9 4.3 0.00 0.00 0.00 45 1012.3
20260905181205 97 141 2.6 6.1 0.00 0.00 0.00 43 1012.1
20260905180704 99 100 4.3 6.1 0.00 0.00 0.00 42 1012.1
20260905180204 98 63 1.7 4.3 0.00 0.00 0.00 44 1012.4
20260905175704 95 113 1.7 2.6 0.00 0.00 0.00 47 1012.4
20260905175204 96 347 0.9 5.2 0.00 0.00 0.00 45 1012.5
20260905174705 97 118 1.7 5.2 0.00 0.00 0.00 44 1012.7
20260905174204 96 132 3.5 7.8 0.00 0.00 0.00 46 1012.7
20260905173704 95 225 0.9 7.8 0.00 0.00 0.00 47 1012.4
20260905173204 97 115 3.5 6.1 0.00 0.00 0.00 46 1012.6
20260905172704 97 112 2.6 6.1 0.00 0.00 0.00 46 1012.6
20260905172204 96 148 1.7 5.2 0.00 0.00 0.00 47 1012.8
20260905171205 95 130 2.6 7.0 0.00 0.00 0.00 49 1013.0
20260905170704 95 126 4.3 7.8 0.00 0.00 0.00 50 1013.1
20260905170204 94 138 4.3 7.8 0.00 0.00 0.00 50 1013.1
20260905165704 94 144 5.2 7.8 0.00 0.00 0.00 49 1013.2
20260905165204 95 108 2.6 6.1 0.00 0.00 0.00 49 1013.3
20260905164705 94 115 1.7 5.2 0.00 0.00 0.00 50 1013.3
20260905164204 93 290 1.7 5.2 0.00 0.00 0.00 50 1013.4
20260905163704 94 245 1.7 6.1 0.00 0.00 0.00 50 1013.4
20260905163204 93 115 3.5 6.1 0.00 0.00 0.00 52 1013.4
20260905162704 93 101 3.5 7.0 0.00 0.00 0.00 52 1013.6
20260905161704 91 158 0.9 6.1 0.00 0.00 0.00 54 1013.5
20260905161204 91 124 2.6 6.1 0.00 0.00 0.00 54 1013.8
20260905160705 91 212 1.7 4.3 0.00 0.00 0.00 54 1013.8
20260905155704 89 142 1.7 4.3 0.00 0.00 0.00 59 1013.7
20260905155205 89 316 1.7 2.6 0.00 0.00 0.00 56 1014.0
20260905154704 89 148 0.9 2.6 0.00 0.00 0.00 61 1014.2
20260905153204 85 166 0.9 2.6 0.00 0.00 0.00 67 1014.1
20260905152704 84 20 0.9 2.6 0.00 0.00 0.00 70 1014.2
20260905152204 83 29 1.7 2.6 0.00 0.00 0.00 73 1014.1
20260905151706 83 160 1.7 2.6 0.00 0.00 0.00 74 1014.5
20260905151204 83 172 0.9 2.6 0.00 0.00 0.00 74 1014.2
20260905150706 83 176 1.7 2.6 0.00 0.00 0.00 75 1014.3
20260905150204 83 95 1.7 2.6 0.00 0.00 0.00 75 1014.4
20260905145704 82 249 0.9 2.6 0.00 0.00 0.00 76 1014.3
20260905145204 82 60 0.9 4.3 0.00 0.00 0.00 78 1014.2
20260905144705 82 131 1.7 4.3 0.00 0.00 0.00 78 1014.5
20260905144204 82 139 0.9 2.6 0.00 0.00 0.00 77 1014.3
20260905143704 81 109 0.0 1.7 0.00 0.00 0.00 77 1014.4
20260905142704 80 151 0.0 1.7 0.00 0.00 0.00 79 1014.5
20260905142204 80 240 0.9 1.7 0.00 0.00 0.00 79 1014.5
20260905141704 81 128 0.9 1.7 0.00 0.00 0.00 80 1014.5
20260905141204 80 82 0.0 1.7 0.00 0.00 0.00 80 1014.6
20260905140704 80 172 0.0 1.7 0.00 0.00 0.00 81 1014.3
20260905140204 80 161 0.9 1.7 0.00 0.00 0.00 81 1014.4
20260905135704 80 147 1.7 1.7 0.00 0.00 0.00 81 1014.4
20260905135204 80 206 0.9 1.7 0.00 0.00 0.00 81 1014.4
20260905134204 79 189 0.9 1.7 0.00 0.00 0.00 81 1014.5
20260905133705 78 124 0.9 1.7 0.00 0.00 0.00 82 1014.3
20260905133205 78 129 0.9 1.7 0.00 0.00 0.00 83 1014.4
20260905132704 78 113 0.9 1.7 0.00 0.00 0.00 84 1014.6
20260905132204 78 163 0.9 1.7 0.00 0.00 0.00 85 1014.7
20260905131704 77 71 0.0 1.7 0.00 0.00 0.00 85 1014.8
20260905131204 77 149 0.0 1.7 0.00 0.00 0.00 85 1014.8
20260905130704 76 178 0.9 1.7 0.00 0.00 0.00 86 1014.7
20260905130204 76 165 0.9 1.7 0.00 0.00 0.00 87 1014.8
20260905125704 76 208 0.0 0.9 0.00 0.00 0.00 87 1014.6
20260905125206 75 124 0.0 0.9 0.00 0.00 0.00 88 1014.8
20260905123704 74 206 0.9 1.7 0.00 0.00 0.00 90 1014.7
20260905122204 72 212 0.0 1.7 0.00 0.00 0.00 95 1014.6
20260905121204 71 144 0.0 1.7 0.00 0.00 0.00 96 1014.7